| time (UTC) | temp F | wind direction | speed MPH | gust MPH | rain 1hr in | rain 24hr in | rain mn in | humidity % | barometer mb |
| 20260505060059 | 56 | 3 | 6.0 | 9.0 | 0.00 | 0.00 | 0.00 | 79 | 1027.1 |
| 20260505055543 | 56 | 356 | 6.0 | 7.0 | 0.00 | 0.00 | 0.00 | 79 | 1027.1 |
| 20260505055043 | 56 | 6 | 4.0 | 7.0 | 0.00 | 0.00 | 0.00 | 79 | 1027.1 |
| 20260505054540 | 56 | 3 | 6.0 | 6.0 | 0.00 | 0.00 | 0.00 | 79 | 1027.1 |
| 20260505054041 | 56 | 7 | 5.0 | 9.0 | 0.00 | 0.00 | 0.00 | 78 | 1026.9 |
| 20260505053540 | 56 | 3 | 5.0 | 9.0 | 0.00 | 0.00 | 0.00 | 78 | 1026.8 |
| 20260505053402 | 56 | 1 | 5.0 | 7.0 | 0.00 | 0.00 | 0.00 | 78 | 1026.7 |
| 20260505052542 | 56 | 18 | 5.0 | 7.0 | 0.00 | 0.00 | 0.00 | 77 | 1026.6 |
| 20260505052043 | 57 | 23 | 4.0 | 9.0 | 0.00 | 0.00 | 0.00 | 76 | 1026.5 |
| 20260505051543 | 57 | 30 | 6.0 | 10.0 | 0.00 | 0.00 | 0.00 | 75 | 1026.4 |
| 20260505051043 | 57 | 44 | 6.0 | 13.0 | 0.00 | 0.00 | 0.00 | 75 | 1026.4 |
| 20260505050541 | 57 | 24 | 8.0 | 13.0 | 0.00 | 0.00 | 0.00 | 74 | 1026.2 |
| 20260505050357 | 58 | 34 | 5.0 | 11.0 | 0.00 | 0.00 | 0.00 | 74 | 1026.1 |
| 20260505041331 | 58 | 55 | 10.0 | 15.0 | 0.00 | 0.00 | 0.00 | 74 | 1026.0 |
| 20260505040523 | 58 | 51 | 7.0 | 12.0 | 0.00 | 0.00 | 0.00 | 76 | 1026.0 |
| 20260505040020 | 58 | 41 | 8.0 | 13.0 | 0.00 | 0.00 | 0.00 | 75 | 1026.0 |
| 20260505035517 | 58 | 54 | 9.0 | 15.0 | 0.00 | 0.00 | 0.00 | 75 | 1026.1 |
| 20260505035013 | 58 | 53 | 8.0 | 15.0 | 0.00 | 0.00 | 0.00 | 75 | 1026.2 |
| 20260505034512 | 58 | 31 | 9.0 | 14.0 | 0.00 | 0.00 | 0.00 | 75 | 1026.2 |
| 20260505034012 | 58 | 34 | 11.0 | 14.0 | 0.00 | 0.00 | 0.00 | 75 | 1026.2 |
| 20260505033511 | 58 | 36 | 8.0 | 14.0 | 0.00 | 0.00 | 0.00 | 76 | 1026.3 |
| 20260505033011 | 58 | 34 | 8.0 | 15.0 | 0.00 | 0.00 | 0.00 | 75 | 1026.3 |
| 20260505032823 | 58 | 46 | 10.0 | 15.0 | 0.00 | 0.00 | 0.00 | 76 | 1026.2 |
| 20260505032007 | 58 | 51 | 9.0 | 14.0 | 0.00 | 0.00 | 0.00 | 76 | 1026.3 |
| 20260505031504 | 58 | 30 | 8.0 | 14.0 | 0.00 | 0.00 | 0.00 | 76 | 1026.3 |
| 20260505031004 | 58 | 33 | 6.0 | 10.0 | 0.00 | 0.00 | 0.00 | 76 | 1026.4 |
| 20260505030500 | 58 | 44 | 6.0 | 15.0 | 0.00 | 0.00 | 0.00 | 76 | 1026.3 |
| 20260505030315 | 58 | 37 | 9.0 | 15.0 | 0.00 | 0.00 | 0.00 | 77 | 1026.3 |
| 20260505025500 | 58 | 48 | 10.0 | 15.0 | 0.00 | 0.00 | 0.00 | 77 | 1026.4 |
| 20260505025102 | 58 | 51 | 11.0 | 14.0 | 0.00 | 0.00 | 0.00 | 77 | 1026.6 |
| 20260505023956 | 58 | 48 | 11.0 | 14.0 | 0.00 | 0.00 | 0.00 | 77 | 1026.7 |
| 20260505023453 | 58 | 31 | 8.0 | 12.0 | 0.00 | 0.00 | 0.00 | 78 | 1026.8 |
| 20260505022956 | 58 | 28 | 8.0 | 13.0 | 0.00 | 0.00 | 0.00 | 77 | 1026.9 |
| 20260505022451 | 58 | 60 | 8.0 | 13.0 | 0.00 | 0.00 | 0.00 | 77 | 1026.8 |
| 20260505021947 | 58 | 51 | 9.0 | 17.0 | 0.00 | 0.00 | 0.00 | 77 | 1026.9 |
| 20260505021445 | 58 | 40 | 9.0 | 17.0 | 0.00 | 0.00 | 0.00 | 77 | 1026.9 |
| 20260505020941 | 58 | 38 | 9.0 | 16.0 | 0.00 | 0.00 | 0.00 | 77 | 1027.0 |
| 20260505020439 | 58 | 43 | 10.0 | 17.0 | 0.00 | 0.00 | 0.00 | 77 | 1027.0 |
| 20260505015938 | 58 | 47 | 11.0 | 17.0 | 0.00 | 0.00 | 0.00 | 77 | 1026.8 |
| 20260505015437 | 58 | 43 | 10.0 | 15.0 | 0.00 | 0.00 | 0.00 | 77 | 1026.9 |
| 20260505014934 | 58 | 30 | 9.0 | 13.0 | 0.00 | 0.00 | 0.00 | 77 | 1026.9 |
| 20260505014558 | 58 | 30 | 10.0 | 14.0 | 0.00 | 0.00 | 0.00 | 76 | 1026.9 |
| 20260505013435 | 58 | 40 | 11.0 | 16.0 | 0.00 | 0.00 | 0.00 | 76 | 1027.0 |
| 20260505012934 | 58 | 30 | 12.0 | 16.0 | 0.00 | 0.00 | 0.00 | 76 | 1026.9 |
| 20260505012540 | 58 | 30 | 11.0 | 15.0 | 0.00 | 0.00 | 0.00 | 77 | 1027.0 |
| 20260505011428 | 58 | 58 | 8.0 | 12.0 | 0.00 | 0.00 | 0.00 | 77 | 1027.1 |
| 20260505010928 | 58 | 38 | 8.0 | 14.0 | 0.00 | 0.00 | 0.00 | 76 | 1027.1 |
| 20260505010426 | 58 | 30 | 8.0 | 15.0 | 0.00 | 0.00 | 0.00 | 76 | 1027.1 |
| 20260505010032 | 58 | 61 | 11.0 | 15.0 | 0.00 | 0.00 | 0.00 | 76 | 1027.1 |
| 20260505004912 | 58 | 78 | 8.0 | 14.0 | 0.00 | 0.00 | 0.00 | 76 | 1027.1 |
| 20260505004744 | 58 | 64 | 11.0 | 16.0 | 0.00 | 0.00 | 0.00 | 75 | 1027.0 |
| 20260505004306 | 59 | 62 | 13.0 | 16.0 | 0.00 | 0.00 | 0.00 | 75 | 1027.0 |
| 20260505003406 | 59 | 67 | 11.0 | 17.0 | 0.00 | 0.00 | 0.00 | 75 | 1027.2 |
| 20260505002907 | 59 | 53 | 13.0 | 17.0 | 0.00 | 0.00 | 0.00 | 74 | 1027.2 |
| 20260505002405 | 59 | 61 | 10.0 | 15.0 | 0.00 | 0.00 | 0.00 | 75 | 1027.2 |
| 20260505001908 | 59 | 69 | 11.0 | 17.0 | 0.00 | 0.00 | 0.00 | 74 | 1027.2 |
| 20260505001407 | 59 | 43 | 11.0 | 19.0 | 0.00 | 0.00 | 0.00 | 74 | 1027.2 |
| 20260505000854 | 59 | 36 | 12.0 | 19.0 | 0.00 | 0.00 | 0.00 | 75 | 1027.3 |
| 20260505000348 | 59 | 67 | 12.0 | 18.0 | 0.00 | 0.00 | 0.00 | 75 | 1027.3 |
| 20260504235848 | 59 | 50 | 13.0 | 18.0 | 0.00 | 0.00 | 0.00 | 76 | 1027.3 |
| 20260504235347 | 59 | 41 | 10.0 | 17.0 | 0.00 | 0.00 | 0.00 | 76 | 1027.2 |
| 20260504234843 | 59 | 57 | 11.0 | 17.0 | 0.00 | 0.00 | 0.00 | 76 | 1027.3 |
| 20260504234342 | 59 | 61 | 13.0 | 17.0 | 0.00 | 0.00 | 0.00 | 76 | 1027.3 |
| 20260504233841 | 59 | 51 | 11.0 | 15.0 | 0.00 | 0.00 | 0.00 | 76 | 1027.2 |
| 20260504233340 | 59 | 40 | 9.0 | 19.0 | 0.00 | 0.00 | 0.00 | 76 | 1027.3 |
| 20260504232839 | 59 | 68 | 11.0 | 19.0 | 0.00 | 0.00 | 0.00 | 75 | 1027.3 |
| 20260504232639 | 59 | 64 | 13.0 | 18.0 | 0.00 | 0.00 | 0.00 | 76 | 1027.2 |
| 20260504232150 | 59 | 65 | 12.0 | 19.0 | 0.00 | 0.00 | 0.00 | 76 | 1027.3 |
| 20260504231337 | 59 | 48 | 11.0 | 19.0 | 0.00 | 0.00 | 0.00 | 75 | 1027.2 |
| 20260504230835 | 59 | 55 | 12.0 | 17.0 | 0.00 | 0.00 | 0.00 | 75 | 1027.2 |
| 20260504230334 | 59 | 68 | 11.0 | 16.0 | 0.00 | 0.00 | 0.00 | 75 | 1027.3 |
| 20260504225836 | 59 | 57 | 12.0 | 16.0 | 0.00 | 0.00 | 0.00 | 75 | 1027.3 |
| 20260504225649 | 59 | 79 | 11.0 | 16.0 | 0.00 | 0.00 | 0.00 | 76 | 1027.3 |
| 20260504224832 | 59 | 40 | 9.0 | 16.0 | 0.00 | 0.00 | 0.00 | 76 | 1027.1 |
| 20260504224331 | 59 | 54 | 12.0 | 16.0 | 0.00 | 0.00 | 0.00 | 75 | 1027.1 |
| 20260504223832 | 59 | 53 | 12.0 | 15.0 | 0.00 | 0.00 | 0.00 | 74 | 1027.2 |
| 20260504223330 | 59 | 41 | 9.0 | 16.0 | 0.00 | 0.00 | 0.00 | 73 | 1027.1 |
| 20260504222832 | 59 | 37 | 12.0 | 16.0 | 0.00 | 0.00 | 0.00 | 73 | 1027.1 |
| 20260504222330 | 59 | 44 | 10.0 | 17.0 | 0.00 | 0.00 | 0.00 | 73 | 1027.0 |
| 20260504221832 | 59 | 75 | 11.0 | 18.0 | 0.00 | 0.00 | 0.00 | 73 | 1027.0 |
| 20260504221332 | 59 | 54 | 9.0 | 20.0 | 0.00 | 0.00 | 0.00 | 74 | 1026.9 |
| 20260504220830 | 59 | 57 | 11.0 | 20.0 | 0.00 | 0.00 | 0.00 | 73 | 1026.9 |
| 20260504220654 | 59 | 81 | 12.0 | 19.0 | 0.00 | 0.00 | 0.00 | 74 | 1026.9 |
| 20260504215832 | 59 | 68 | 15.0 | 19.0 | 0.00 | 0.00 | 0.00 | 76 | 1026.8 |
| 20260504215646 | 59 | 54 | 11.0 | 18.0 | 0.00 | 0.00 | 0.00 | 76 | 1026.7 |
| 20260504215142 | 59 | 65 | 11.0 | 19.0 | 0.00 | 0.00 | 0.00 | 76 | 1026.6 |
| 20260504214331 | 59 | 60 | 15.0 | 19.0 | 0.00 | 0.00 | 0.00 | 76 | 1026.6 |
| 20260504214211 | 59 | 53 | 12.0 | 18.0 | 0.00 | 0.00 | 0.00 | 77 | 1026.6 |
| 20260504213331 | 59 | 43 | 9.0 | 15.0 | 0.00 | 0.00 | 0.00 | 77 | 1026.6 |
| 20260504212831 | 59 | 64 | 10.0 | 16.0 | 0.00 | 0.00 | 0.00 | 77 | 1026.6 |
| 20260504212331 | 59 | 43 | 9.0 | 16.0 | 0.00 | 0.00 | 0.00 | 77 | 1026.5 |
| 20260504211829 | 59 | 36 | 12.0 | 16.0 | 0.00 | 0.00 | 0.00 | 77 | 1026.5 |
| 20260504211331 | 59 | 38 | 9.0 | 16.0 | 0.00 | 0.00 | 0.00 | 77 | 1026.4 |
| 20260504210825 | 59 | 53 | 11.0 | 17.0 | 0.00 | 0.00 | 0.00 | 77 | 1026.3 |
| 20260504210320 | 59 | 41 | 8.0 | 17.0 | 0.00 | 0.00 | 0.00 | 77 | 1026.4 |
| 20260504205820 | 59 | 58 | 11.0 | 17.0 | 0.00 | 0.00 | 0.00 | 77 | 1026.2 |
| 20260504205319 | 59 | 37 | 9.0 | 14.0 | 0.00 | 0.00 | 0.00 | 77 | 1026.2 |
| 20260504204813 | 59 | 64 | 10.0 | 14.0 | 0.00 | 0.00 | 0.00 | 77 | 1026.1 |
| 20260504204625 | 59 | 46 | 9.0 | 15.0 | 0.00 | 0.00 | 0.00 | 77 | 1026.0 |
| 20260504204144 | 59 | 36 | 13.0 | 15.0 | 0.00 | 0.00 | 0.00 | 77 | 1025.9 |
| 20260504203306 | 59 | 50 | 11.0 | 17.0 | 0.00 | 0.00 | 0.00 | 77 | 1025.9 |
| 20260504202808 | 59 | 38 | 12.0 | 17.0 | 0.00 | 0.00 | 0.00 | 76 | 1025.8 |
| 20260504202304 | 59 | 40 | 9.0 | 15.0 | 0.00 | 0.00 | 0.00 | 76 | 1025.8 |
| 20260504201757 | 59 | 30 | 12.0 | 15.0 | 0.00 | 0.00 | 0.00 | 76 | 1025.7 |
| 20260504201255 | 60 | 33 | 11.0 | 15.0 | 0.00 | 0.00 | 0.00 | 76 | 1025.7 |
| 20260504200751 | 60 | 37 | 9.0 | 15.0 | 0.00 | 0.00 | 0.00 | 76 | 1025.7 |
| 20260504200247 | 60 | 30 | 11.0 | 16.0 | 0.00 | 0.00 | 0.00 | 76 | 1025.6 |
| 20260504195749 | 60 | 30 | 11.0 | 17.0 | 0.00 | 0.00 | 0.00 | 75 | 1025.6 |
| 20260504195611 | 60 | 47 | 10.0 | 21.0 | 0.00 | 0.00 | 0.00 | 75 | 1025.6 |
| 20260504195107 | 60 | 57 | 11.0 | 21.0 | 0.00 | 0.00 | 0.00 | 76 | 1025.5 |
| 20260504194239 | 60 | 44 | 15.0 | 20.0 | 0.00 | 0.00 | 0.00 | 75 | 1025.3 |
| 20260504193740 | 60 | 41 | 15.0 | 21.0 | 0.00 | 0.00 | 0.00 | 75 | 1025.2 |
| 20260504193611 | 60 | 53 | 15.0 | 21.0 | 0.00 | 0.00 | 0.00 | 75 | 1025.3 |
| 20260504193101 | 60 | 46 | 12.0 | 20.0 | 0.00 | 0.00 | 0.00 | 75 | 1025.2 |
| 20260504192546 | 60 | 68 | 13.0 | 23.0 | 0.00 | 0.00 | 0.00 | 75 | 1025.0 |
| 20260504192055 | 60 | 60 | 18.0 | 23.0 | 0.00 | 0.00 | 0.00 | 74 | 1025.0 |
| 20260504191234 | 61 | 48 | 15.0 | 22.0 | 0.00 | 0.00 | 0.00 | 74 | 1025.0 |
| 20260504190734 | 61 | 61 | 13.0 | 21.0 | 0.00 | 0.00 | 0.00 | 74 | 1025.0 |
| 20260504190236 | 61 | 55 | 15.0 | 21.0 | 0.00 | 0.00 | 0.00 | 74 | 1025.0 |
| 20260504190120 | 61 | 30 | 14.0 | 22.0 | 0.00 | 0.00 | 0.00 | 73 | 1025.0 |
| 20260504185236 | 61 | 50 | 17.0 | 24.0 | 0.00 | 0.00 | 0.00 | 73 | 1025.0 |
| 20260504184734 | 61 | 54 | 15.0 | 24.0 | 0.00 | 0.00 | 0.00 | 73 | 1025.0 |
| 20260504184601 | 61 | 30 | 11.0 | 23.0 | 0.00 | 0.00 | 0.00 | 73 | 1025.0 |
| 20260504183732 | 61 | 64 | 15.0 | 23.0 | 0.00 | 0.00 | 0.00 | 73 | 1024.9 |
| 20260504183233 | 61 | 44 | 14.0 | 20.0 | 0.00 | 0.00 | 0.00 | 72 | 1025.0 |
| 20260504182734 | 62 | 67 | 13.0 | 21.0 | 0.00 | 0.00 | 0.00 | 73 | 1024.9 |
| 20260504182233 | 62 | 60 | 14.0 | 21.0 | 0.00 | 0.00 | 0.00 | 73 | 1025.0 |
| 20260504181733 | 61 | 60 | 13.0 | 20.0 | 0.00 | 0.00 | 0.00 | 73 | 1024.9 |
| 20260504181232 | 61 | 62 | 14.0 | 20.0 | 0.00 | 0.00 | 0.00 | 73 | 1025.0 |
| 20260504181106 | 61 | 54 | 15.0 | 23.0 | 0.00 | 0.00 | 0.00 | 73 | 1024.9 |
| 20260504180234 | 61 | 36 | 18.0 | 23.0 | 0.00 | 0.00 | 0.00 | 72 | 1025.0 |
| 20260504175736 | 62 | 50 | 13.0 | 22.0 | 0.00 | 0.00 | 0.00 | 73 | 1024.9 |
| 20260504175234 | 62 | 38 | 17.0 | 22.0 | 0.00 | 0.00 | 0.00 | 73 | 1024.9 |
| 20260504175050 | 62 | 44 | 15.0 | 23.0 | 0.00 | 0.00 | 0.00 | 74 | 1024.7 |
| 20260504174233 | 62 | 46 | 16.0 | 23.0 | 0.00 | 0.00 | 0.00 | 72 | 1024.8 |
| 20260504173734 | 62 | 74 | 15.0 | 28.0 | 0.00 | 0.00 | 0.00 | 73 | 1024.8 |
| 20260504173234 | 62 | 38 | 15.0 | 28.0 | 0.00 | 0.00 | 0.00 | 72 | 1024.8 |
| 20260504172732 | 62 | 74 | 13.0 | 22.0 | 0.00 | 0.00 | 0.00 | 73 | 1024.8 |
| 20260504172233 | 62 | 27 | 15.0 | 22.0 | 0.00 | 0.00 | 0.00 | 73 | 1024.7 |
| 20260504171748 | 62 | 33 | 16.0 | 23.0 | 0.00 | 0.00 | 0.00 | 72 | 1024.7 |
| 20260504171235 | 62 | 30 | 14.0 | 23.0 | 0.00 | 0.00 | 0.00 | 73 | 1024.7 |
| 20260504170734 | 62 | 27 | 15.0 | 24.0 | 0.00 | 0.00 | 0.00 | 72 | 1024.8 |
| 20260504170553 | 62 | 38 | 16.0 | 24.0 | 0.00 | 0.00 | 0.00 | 71 | 1024.8 |
| 20260504170128 | 63 | 36 | 13.0 | 23.0 | 0.00 | 0.00 | 0.00 | 71 | 1024.7 |
| 20260504160329 | 62 | 48 | 17.0 | 28.0 | 0.00 | 0.00 | 0.00 | 68 | 1024.6 |
| 20260504150708 | 63 | 85 | 17.0 | 24.0 | 0.00 | 0.00 | 0.00 | 70 | 1024.8 |
| 20260504150207 | 63 | 40 | 19.0 | 24.0 | 0.00 | 0.00 | 0.00 | 68 | 1024.8 |
| 20260504140647 | 63 | 79 | 16.0 | 26.0 | 0.00 | 0.00 | 0.00 | 68 | 1025.1 |
| 20260504140507 | 63 | 58 | 19.0 | 26.0 | 0.00 | 0.00 | 0.00 | 67 | 1024.9 |
| 20260504130630 | 62 | 58 | 15.0 | 26.0 | 0.00 | 0.00 | 0.00 | 69 | 1025.3 |
| 20260504130128 | 62 | 77 | 17.0 | 27.0 | 0.00 | 0.00 | 0.00 | 69 | 1025.2 |
| 20260504110537 | 62 | 85 | 17.0 | 20.0 | 0.00 | 0.00 | 0.00 | 69 | 1025.3 |
| 20260504081937 | 58 | 88 | 10.0 | 17.0 | 0.00 | 0.00 | 0.00 | 78 | 1024.5 |
| 20260504081435 | 58 | 84 | 10.0 | 19.0 | 0.00 | 0.00 | 0.00 | 77 | 1024.5 |
| 20260504080934 | 59 | 93 | 14.0 | 19.0 | 0.00 | 0.00 | 0.00 | 78 | 1024.5 |
| 20260504080434 | 58 | 79 | 11.0 | 16.0 | 0.00 | 0.00 | 0.00 | 79 | 1024.4 |